Powrót do katalogu

CZ-4 DEB

AktywnySSO
NORAD 26155·DEBRIS·🇨🇳 China

Wystrzelony Oct 14, 1999 z Taiyuan Satellite Launch Center

Loading…

Następne Przeloty (najbliższe 24 godziny)

TLE

ŚwieżeSource: Space-Track

Epoka: Sep 14, 2026, 03:51 UTC

1 26155U 99057AR  26257.16076567  .00005066  00000-0  85063-3 0  9991
2 26155  98.5294 325.9898 0117750 215.3091 165.3702 14.65640019382445

Śledź CZ-4 DEB w czasie rzeczywistym z AllMySat

Download on the App Store